Location: Middlebury
(44.0133°N, 73.1813°W)
Time: 02:41:42
(UTC-05:00)

ISS - Visible Passes

Search period start: 27 January 2021 00:00
Search period end: 06 February 2021 00:00
Orbit: 418 x 421 km, 51.6° (Epoch: 27 January)

Date Brightness Start Highest point End Pass type
(mag) Time Alt. Az. Time Alt. Az. Time Alt. Az.
27 Jan -2.0 18:14:15 10° NW 18:16:58 22° N 18:18:09 18° NNE visible
28 Jan -2.1 17:26:40 10° WNW 17:29:27 23° N 17:32:14 10° NE visible
28 Jan -1.7 19:04:04 10° NW 19:05:44 21° NNW 19:05:44 21° NNW visible
29 Jan -2.2 18:16:41 10° NW 18:19:28 23° N 18:20:23 21° NNE visible
30 Jan -2.1 17:29:13 10° NW 17:31:55 22° N 17:34:38 10° ENE visible
30 Jan -2.1 19:06:05 10° NW 19:08:02 28° NNW 19:08:02 28° NNW visible
31 Jan -2.8 18:18:46 10° NW 18:21:52 32° NNE 18:22:46 27° NE visible
31 Jan -0.3 19:55:30 10° WNW 19:55:45 12° WNW 19:55:45 12° WNW visible
01 Feb -2.4 17:31:24 10° NW 17:34:20 26° NNE 17:37:16 10° ENE visible
01 Feb -2.8 19:08:04 10° WNW 19:10:34 46° WNW 19:10:34 46° WNW visible
02 Feb -3.7 18:20:42 10° NW 18:24:03 60° NNE 18:25:29 30° E visible
02 Feb -0.3 19:58:02 10° W 19:58:29 12° W 19:58:29 12° W visible
03 Feb -3.2 17:33:20 10° NW 17:36:35 42° NNE 17:39:50 10° E visible
03 Feb -2.3 19:10:16 10° WNW 19:13:21 33° SW 19:13:32 33° SSW visible
04 Feb -3.1 18:22:43 10° WNW 18:26:01 54° SW 18:28:48 14° SE visible
05 Feb -3.7 17:35:14 10° WNW 17:38:37 88° SW 17:42:00 10° ESE visible
05 Feb -0.7 19:13:27 10° WSW 19:14:58 13° SW 19:16:29 10° SSW visible
